Regional Weather Roundup
Issued by NWS Newport/Morehead, NC

Current Version | Previous Version | Text Only | Print | Product List | Glossary On
Versions: 1 2 3 4 5 6 7 8 9 10 11 12 13 14 15 16 17 18 19 20 21 22 23 24 25 26 27 28 29 30 31 32 33 34 35 36 37 38 39 40 41 42 43 44 45 46 47 48 49 50
000
ASUS42 KMHX 241913
RWRMHX
WEATHER ROUNDUP FOR EASTERN NORTH CAROLINA
NATIONAL WEATHER SERVICE NEWPORT/MOREHEAD CITY NC
300 PM EDT SUN JUL 24 2016

NOTE: "FAIR" INDICATES FEW OR NO CLOUDS BELOW 12,000 FEET
WITH NO SIGNIFICANT WEATHER AND/OR OBSTRUCTIONS TO VISIBILITY

NCZ015>017-031-032-045>047-102-103-242000-
NORTH COAST

CITY           SKY/WX    TMP DP  RH WIND       PRES   REMARKS
EDENTON        SUNNY     95  71  46 SW6       30.00F HX 102
ELIZABETH CITY SUNNY     94  74  52 SW10      29.99F HX 104
KITTY HAWK     CLEAR    100  74  44 CALM      29.99F HX 112
MANTEO           N/A     90  81  76 S13       30.00F HX 109

$$

NCZ045>047-081-094-103-104-242000-
CENTRAL COAST

CITY           SKY/WX    TMP DP  RH WIND       PRES   REMARKS
FRISCO         SUNNY     89  78  70 SW9       30.03F HX 103

$$

NCZ095-097-098-100-101-242000-
SOUTHERN COAST

CITY           SKY/WX    TMP DP  RH WIND       PRES   REMARKS
BEAUFORT       SUNNY     88  78  72 SW13      30.03F HX 101
CEDAR ISLAND   NOT AVBL
JACKSONVILLE   PTSUNNY   91  76  61 S10       30.01F HX 103
PINEY ISLAND   NOT AVBL
WILMINGTON     MOSUNNY   90  76  63 SE8       30.02F HX 101


$$

NCZ011>013-027>030-043-044-078>080-089-090>093-098-242000-
COASTAL PLAIN

CITY           SKY/WX    TMP DP  RH WIND       PRES   REMARKS
AHOSKIE        SUNNY     92  76  61 S5        30.00F HX 104
CLINTON        SUNNY     94  76  55 SW5       30.01F HX 106
ELIZABETHTOWN  SUNNY     94  74  50 W8        30.01F HX 104
GOLDSBORO      SUNNY     97  72  44 VRB6      29.99F HX 105
GREENVILLE     MOSUNNY   95  77  55 W6        30.02F HX 109
HAVELOCK       MOSUNNY   92  77  61 S9        30.02F HX 105
KENANSVILLE    NOT AVBL
KINSTON        MOSUNNY   93  72  49 S6        30.01F HX 100
NEW BERN       MOSUNNY   93  75  55 S8        30.02F HX 104
RICHLANDS      MOSUNNY   94  74  52 SE5       30.01F HX 104
ROCKY MOUNT    SUNNY     94  75  54 SW7       30.01F HX 105
WASHINGTON     MOSUNNY   92  75  57 SW9       30.00F HX 103
WHITEVILLE     SUNNY     93  73  51 W3        30.00F HX 102

$$

AMZ130-135-150-152-154-156-158-170-250-252-270-ANZ085-086-088-633-658-670-242000-
MARINE OBSERVATIONS

STATION/POSITION TIME  TEMP    WIND        PRES    WAVE   SWELL
                       AIR SEA DIR/SP/G            HT/PER HT/PER
                 (UTC) (F)     (DEG/KT/KT) (MB)    (FT/S) (FT/S)
CHESAPEAKE LIGHT NOT AVBL
64 E VA BEACH    1850   82 80  220/  8/ 10 1015.8    3/ 4   2/ 4
DUCK             1800   88 60  220/  9/ 11 1015.5
2 E DUCK         1811      73                N/A     1/ 8
OREGON INLET     1800   85 84  190/ 14/ 16 1016.5
13E OREGON INLT  1900      83                N/A     2/ 9   2/ 9
HATTERAS CG      1800   87 83  200/  9/ 11 1016.9
DIAMOND BUOY     1850   85 86  230/ 12/ 14 1017.1    2/ 8   2/ 8
CAPE LOOKOUT     1900   87     220/ 10/ 13 1016.8
BEAUFORT LAB     1800   87 83  250/  5/ 11 1016.9
30 SE NEW RVR IN 1808   85 85  230/ 10/ 12 1017.6
30 SE NEW RVR IN 1825      86                N/A     2/ 8
27 SE WRIGHTSVLE 1808   85 85  220/  8/ 12 1017.9
5 SE WRIGHTSVLE  1808   85 85  210/ 12/ 16 1018.2
225 S CAPE HAT   1850   84 86  150/  4/  6 1018.4    2/ 8   2/ 8
41 SE CHARLESTON 1850   80 86   90/ 10/ 14 1017.3    2/ 8   2/ 8

$$



USA.gov is the U.S. government's official web portal to all federal, state and local government web resources and services.